Regional Weather Roundup
Issued by NWS Kansas City/Pleasant Hill, MO

Home | Current Version | Previous Version | Graphics & Text | Print | Product List | Glossary Off
Versions: 1 2 3 4 5 6 7 8 9 10 11 12 13 14 15 16 17 18 19 20 21 22 23 24 25 26 27 28

000
ASUS43 KEAX 280110
RWREAX

WEATHER ROUNDUP FOR EASTERN KANSAS AND NORTHWEST MISSOURI
NATIONAL WEATHER SERVICE KANSAS CITY/PLEASANT HILL MO
800 PM CDT SAT MAY 27 2017

KSZ040-057-103>105-MOZ028-029-037-043-280200-
...KANSAS CITY METROPOLITAN AREA...

CITY           SKY/WX    TMP DP  RH WIND       PRES   REMARKS
K.C. INTL      PTCLDY    71  63  75 N5        29.81R
K.C. DOWNTOWN  CLEAR     72  62  71 E3        29.81R
LEES SUMMIT    CLOUDY    70  62  76 CALM      29.83R
OLATHE - IXD   PTCLDY    70  61  73 NE3       29.84R
OLATHE - OJC   MOCLDY    69  62  78 E3        29.84R
LAWRENCE       CLEAR     73  65  75 N9        29.82R

$$

MOZ001>008-011>017-020>025-030>033-038>040-044>046-053-054-280200-
...NORTHERN AND CENTRAL MISSOURI...

CITY           SKY/WX    TMP DP  RH WIND       PRES   REMARKS
ST. JOSEPH     CLEAR     72  64  76 NW13      29.81F
MOSBY          CLEAR     72  61  68 CALM      29.82R
WARRENSBURG    CLOUDY    68  59  73 N3        29.81R
WHITEMAN AFB   CLOUDY    68  67  99 NE5       29.80R
CLINTON        CLOUDY    68  63  83 E5        29.82R
SEDALIA        CLOUDY    66  63  90 E6        29.80F
WARSAW         NOT AVBL
CHILLICOTHE      N/A     74  63  68 N7        29.79S
KIRKSVILLE     MOCLDY    73  64  73 NE3       29.79F

$$

MOZ041-047>049-056>058-063>065-088>090-097-280200-
...EASTERN AND SOUTHERN MISSOURI...

CITY           SKY/WX    TMP DP  RH WIND       PRES   REMARKS
ST. LOUIS INTL CLOUDY    69  60  73 SW8       29.74R
SPIRIT OF STL  CLOUDY    67  61  81 S8G17     29.74R
COLUMBIA       CLOUDY    63  62  97 NE8       29.79F
JEFFERSON CITY CLOUDY    67  60  78 VRB3G17   29.81R
ROLLA          CLOUDY    62  60  93 SE13      29.81R THUNDER
SPRINGFIELD    CLOUDY    65  62  90 VRB3      29.84R THUNDER
BRANSON        CLOUDY    70  63  78 N15G31    29.84R THUNDER
JOPLIN         CLOUDY    71  70  96 SE8       29.77R
WEST PLAINS    TSTM      65  61  87 NW38G48   30.04R FOG

$$

IAZ060-094-KSZ022-034>040-054-083-096-NEZ052-066-093-280200-
...KANSAS...SOUTHEAST NEBRASKA AND IOWA...

CITY           SKY/WX    TMP DP  RH WIND       PRES   REMARKS
TOPEKA         CLEAR     72  64  76 N10       29.82R
MANHATTAN      CLEAR     71  63  75 N3        29.85R
EMPORIA        CLEAR     74  62  66 N8        29.81S
CHANUTE        CLOUDY    74  61  63 NE16      29.79R
WICHITA        MOCLDY    77  62  59 N15       29.82S
OMAHA          CLOUDY    69  54  58 NE5       29.89S
LINCOLN        CLOUDY    69  58  67 E8        29.90S
FALLS CITY     PTCLDY    68  60  75 N10       29.85S
LAMONI         CLOUDY    68  61  78 N9        29.83F
DES MOINES     MOCLDY    65  56  72 NE7       29.86F

$$





USA.gov is the U.S. government's official web portal to all federal, state and local government web resources and services.